[keps] orb08178.amsat
Ray Hoad
r.hoad at att.net
Thu Jun 26 20:46:57 PDT 2008
SB KEPS @ AMSAT $ORB08178.O
Orbital Elements 08178.OSCAR
HR AMSAT ORBITAL ELEMENTS FOR OSCAR SATELLITES
FROM WA5QGD FORT WORTH,TX June 26, 2008
Send Subscribe/unsubscribe to KEPS at
http://www.amsat.org/mailman/listinfo/keps
BID: ORB08178.O
TO ALL RADIO AMATEURS BT
Satellite: AO-07
Catalog number: 07530
Epoch time: 08178.55112313
Element set: 211
Inclination: 101.4641 deg
RA of node: 209.7337 deg
Eccentricity: 0.0011631
Arg of perigee: 243.9327 deg
Mean anomaly: 116.0550 deg
Mean motion: 12.53573805 rev/day
Decay rate: -2.7e-07 rev/day^2
Epoch rev: 53815
Checksum: 261
Satellite: AO-10
Catalog number: 14129
Epoch time: 08177.48374017
Element set: 0522
Inclination: 025.9773 deg
RA of node: 208.6393 deg
Eccentricity: 0.5981167
Arg of perigee: 134.9841 deg
Mean anomaly: 292.8543 deg
Mean motion: 02.05869584 rev/day
Decay rate: -4.6e-07 rev/day^2
Epoch rev: 18827
Checksum: 343
Satellite: UO-11
Catalog number: 14781
Epoch time: 08178.65306659
Element set: 704
Inclination: 098.1518 deg
RA of node: 212.8274 deg
Eccentricity: 0.0010031
Arg of perigee: 047.2670 deg
Mean anomaly: 312.9319 deg
Mean motion: 14.79653090 rev/day
Decay rate: 6.96e-06 rev/day^2
Epoch rev: 30525
Checksum: 305
Satellite: RS-15
Catalog number: 23439
Epoch time: 08177.97163901
Element set: 0127
Inclination: 064.8157 deg
RA of node: 120.8421 deg
Eccentricity: 0.0147502
Arg of perigee: 121.3048 deg
Mean anomaly: 240.2434 deg
Mean motion: 11.27552261 rev/day
Decay rate: -3.9e-07 rev/day^2
Epoch rev: 55595
Checksum: 287
Satellite: FO-29
Catalog number: 24278
Epoch time: 08177.84809340
Element set: 0812
Inclination: 098.5851 deg
RA of node: 093.0066 deg
Eccentricity: 0.0350561
Arg of perigee: 193.0318 deg
Mean anomaly: 166.1581 deg
Mean motion: 13.52937898 rev/day
Decay rate: -1.0e-08 rev/day^2
Epoch rev: 58556
Checksum: 335
Satellite: SO-33
Catalog number: 25509
Epoch time: 08178.48747820
Element set: 227
Inclination: 031.4293 deg
RA of node: 263.7665 deg
Eccentricity: 0.0354667
Arg of perigee: 108.5680 deg
Mean anomaly: 255.3763 deg
Mean motion: 14.28216004 rev/day
Decay rate: -3.9e-07 rev/day^2
Epoch rev: 50494
Checksum: 323
Satellite: AO-40
Catalog number: 26609
Epoch time: 08177.56746954
Element set: 83
Inclination: 007.5920 deg
RA of node: 075.8323 deg
Eccentricity: 0.7916450
Arg of perigee: 094.8463 deg
Mean anomaly: 348.4822 deg
Mean motion: 01.25585010 rev/day
Decay rate: -6.0e-07 rev/day^2
Epoch rev: 3514
Checksum: 313
Satellite: VO-52
Catalog number: 28650
Epoch time: 08178.32182156
Element set: 965
Inclination: 097.7897 deg
RA of node: 244.6828 deg
Eccentricity: 0.0028333
Arg of perigee: 110.1917 deg
Mean anomaly: 250.2320 deg
Mean motion: 14.81476397 rev/day
Decay rate: -3.0e-07 rev/day^2
Epoch rev: 16995
Checksum: 329
Satellite: PO-63
Catalog number: 29712
Epoch time: 08178.75571251
Element set: 564
Inclination: 097.8744 deg
RA of node: 236.7626 deg
Eccentricity: 0.0014262
Arg of perigee: 356.2064 deg
Mean anomaly: 003.9033 deg
Mean motion: 14.80194389 rev/day
Decay rate: 4.62e-06 rev/day^2
Epoch rev: 7888
Checksum: 332
/EX
SB KEPS @ AMSAT $ORB08178.D
Orbital Elements 08178.MICROS
HR AMSAT ORBITAL ELEMENTS FOR THE MICROSATS
FROM WA5QGD FORT WORTH,TX June 26, 2008
Send Subscribe/unsubscribe to KEPS at
http://www.amsat.org/mailman/listinfo/keps
BID: ORB08178.D
TO ALL RADIO AMATEURS BT
Satellite: AO-16
Catalog number: 20439
Epoch time: 08178.43512088
Element set: 353
Inclination: 098.2299 deg
RA of node: 158.0248 deg
Eccentricity: 0.0011366
Arg of perigee: 144.7598 deg
Mean anomaly: 215.4337 deg
Mean motion: 14.31796619 rev/day
Decay rate: -2.0e-07 rev/day^2
Epoch rev: 96224
Checksum: 322
Satellite: LO-19
Catalog number: 20442
Epoch time: 08178.62064021
Element set: 281
Inclination: 098.2002 deg
RA of node: 166.7070 deg
Eccentricity: 0.0012439
Arg of perigee: 142.3484 deg
Mean anomaly: 217.8558 deg
Mean motion: 14.32035138 rev/day
Decay rate: 1.0e-08 rev/day^2
Epoch rev: 96242
Checksum: 273
Satellite: AO-27
Catalog number: 22825
Epoch time: 08177.46156751
Element set: 0002
Inclination: 098.3851 deg
RA of node: 137.1737 deg
Eccentricity: 0.0007654
Arg of perigee: 233.0594 deg
Mean anomaly: 126.9898 deg
Mean motion: 14.29241288 rev/day
Decay rate: -8.0e-08 rev/day^2
Epoch rev: 76895
Checksum: 339
Satellite: IO-26
Catalog number: 22826
Epoch time: 08178.77408770
Element set: 707
Inclination: 098.3772 deg
RA of node: 139.3415 deg
Eccentricity: 0.0008142
Arg of perigee: 226.1728 deg
Mean anomaly: 133.8782 deg
Mean motion: 14.29490481 rev/day
Decay rate: -1.2e-07 rev/day^2
Epoch rev: 76923
Checksum: 327
Satellite: PO-28
Catalog number: 22829
Epoch time: 08178.47606885
Element set: 978
Inclination: 098.3655 deg
RA of node: 140.1575 deg
Eccentricity: 0.0009456
Arg of perigee: 196.4060 deg
Mean anomaly: 163.6809 deg
Mean motion: 14.30191848 rev/day
Decay rate: 7.0e-08 rev/day^2
Epoch rev: 76945
Checksum: 356
Satellite: GO-32
Catalog number: 25397
Epoch time: 08177.68801031
Element set: 631
Inclination: 098.3627 deg
RA of node: 212.4308 deg
Eccentricity: 0.0000953
Arg of perigee: 167.5430 deg
Mean anomaly: 192.5774 deg
Mean motion: 14.23145437 rev/day
Decay rate: 4.1e-07 rev/day^2
Epoch rev: 51742
Checksum: 293
Satellite: NO-44
Catalog number: 26931
Epoch time: 08177.75135076
Element set: 0912
Inclination: 067.0531 deg
RA of node: 262.5938 deg
Eccentricity: 0.0006961
Arg of perigee: 272.7126 deg
Mean anomaly: 087.3200 deg
Mean motion: 14.29526455 rev/day
Decay rate: 1.01e-06 rev/day^2
Epoch rev: 35163
Checksum: 297
Satellite: SO-50
Catalog number: 27607
Epoch time: 08177.57036614
Element set: 0636
Inclination: 064.5594 deg
RA of node: 028.1810 deg
Eccentricity: 0.0085863
Arg of perigee: 277.8703 deg
Mean anomaly: 081.2665 deg
Mean motion: 14.71364875 rev/day
Decay rate: 6.2e-07 rev/day^2
Epoch rev: 29620
Checksum: 326
Satellite: CO-55
Catalog number: 27844
Epoch time: 08177.74789094
Element set: 336
Inclination: 098.7141 deg
RA of node: 185.8947 deg
Eccentricity: 0.0010974
Arg of perigee: 090.0170 deg
Mean anomaly: 270.2252 deg
Mean motion: 14.20585255 rev/day
Decay rate: 3.3e-07 rev/day^2
Epoch rev: 25865
Checksum: 328
Satellite: CO-57
Catalog number: 27848
Epoch time: 08177.60624624
Element set: 287
Inclination: 098.7150 deg
RA of node: 184.8500 deg
Eccentricity: 0.0010659
Arg of perigee: 093.3872 deg
Mean anomaly: 266.8525 deg
Mean motion: 14.20393917 rev/day
Decay rate: 3.1e-07 rev/day^2
Epoch rev: 25860
Checksum: 329
Satellite: AO-51
Catalog number: 28375
Epoch time: 08177.59192204
Element set: 132
Inclination: 098.0699 deg
RA of node: 201.6893 deg
Eccentricity: 0.0084373
Arg of perigee: 126.6226 deg
Mean anomaly: 234.2762 deg
Mean motion: 14.40611873 rev/day
Decay rate: 1.1e-07 rev/day^2
Epoch rev: 20961
Checksum: 304
Satellite: CO-56
Catalog number: 28941
Epoch time: 08178.51532985
Element set: 164
Inclination: 098.1076 deg
RA of node: 290.5010 deg
Eccentricity: 0.0163926
Arg of perigee: 007.6356 deg
Mean anomaly: 352.7331 deg
Mean motion: 15.57696816 rev/day
Decay rate: 2.2147e-04 rev/day^2
Epoch rev: 13149
Checksum: 330
Satellite: CP4
Catalog number: 31122
Epoch time: 08177.89490479
Element set: 0374
Inclination: 098.0412 deg
RA of node: 243.1651 deg
Eccentricity: 0.0084094
Arg of perigee: 302.0018 deg
Mean anomaly: 057.2984 deg
Mean motion: 14.55136551 rev/day
Decay rate: 5.49e-06 rev/day^2
Epoch rev: 06334
Checksum: 299
Satellite: CP3
Catalog number: 31128
Epoch time: 08177.94916730
Element set: 0366
Inclination: 098.0366 deg
RA of node: 241.0157 deg
Eccentricity: 0.0101966
Arg of perigee: 308.2533 deg
Mean anomaly: 050.9525 deg
Mean motion: 14.51954947 rev/day
Decay rate: -4.8e-07 rev/day^2
Epoch rev: 06320
Checksum: 303
/EX
SB KEPS @ AMSAT $ORB08178.W
Orbital Elements 08178.WEATHER
HR AMSAT ORBITAL ELEMENTS FOR WEATHER SATELLITES
FROM WA5QGD FORT WORTH,TX June 26, 2008
Send Subscribe/unsubscribe to KEPS at
http://www.amsat.org/mailman/listinfo/keps
BID: ORB08178.W
TO ALL RADIO AMATEURS BT
Satellite: NOAA-10
Catalog number: 16969
Epoch time: 08178.12731561
Element set: 171
Inclination: 098.7205 deg
RA of node: 200.0785 deg
Eccentricity: 0.0012583
Arg of perigee: 151.5600 deg
Mean anomaly: 208.6271 deg
Mean motion: 14.27361837 rev/day
Decay rate: -1.46e-06 rev/day^2
Epoch rev: 13271
Checksum: 285
Satellite: NOAA-11
Catalog number: 19531
Epoch time: 08178.29018312
Element set: 211
Inclination: 098.7977 deg
RA of node: 267.4890 deg
Eccentricity: 0.0012212
Arg of perigee: 045.4308 deg
Mean anomaly: 314.7856 deg
Mean motion: 14.14873283 rev/day
Decay rate: 2.06e-06 rev/day^2
Epoch rev: 1919
Checksum: 303
Satellite: NOAA-12
Catalog number: 21263
Epoch time: 08178.46685425
Element set: 727
Inclination: 098.7653 deg
RA of node: 180.4168 deg
Eccentricity: 0.0013517
Arg of perigee: 098.0007 deg
Mean anomaly: 262.2719 deg
Mean motion: 14.25537280 rev/day
Decay rate: 1.12e-06 rev/day^2
Epoch rev: 88971
Checksum: 317
Satellite: MET-3/5
Catalog number: 21655
Epoch time: 08177.92964552
Element set: 0490
Inclination: 082.5564 deg
RA of node: 098.2113 deg
Eccentricity: 0.0013676
Arg of perigee: 357.4219 deg
Mean anomaly: 002.6828 deg
Mean motion: 13.17014634 rev/day
Decay rate: 5.1e-07 rev/day^2
Epoch rev: 81073
Checksum: 305
Satellite: MET-2/21
Catalog number: 22782
Epoch time: 08177.81472318
Element set: 0180
Inclination: 082.5483 deg
RA of node: 104.7371 deg
Eccentricity: 0.0020882
Arg of perigee: 266.6332 deg
Mean anomaly: 093.2422 deg
Mean motion: 13.83630809 rev/day
Decay rate: 9.3e-07 rev/day^2
Epoch rev: 74832
Checksum: 303
Satellite: OKEAN-4
Catalog number: 23317
Epoch time: 08178.70797359
Element set: 624
Inclination: 082.5406 deg
RA of node: 306.1841 deg
Eccentricity: 0.0024083
Arg of perigee: 095.2866 deg
Mean anomaly: 265.1098 deg
Mean motion: 14.82619314 rev/day
Decay rate: 3.4e-07 rev/day^2
Epoch rev: 73969
Checksum: 326
